Regional Weather Roundup
Issued by NWS

Home | Current Version | Previous Version | Graphics & Text | Print | Product List | Glossary On
Versions: 1 2 3 4 5 6 7 8 9 10 11 12 13 14 15 16 17 18 19 20 21 22 23 24 25 26 27 28 29 30 31 32 33 34 35 36 37 38 39 40 41 42 43 44 45 46 47 48 49 50
000
ASUS45 KTFX 050704
RWRMT
MONTANA REGIONAL WEATHER ROUNDUP
NATIONAL WEATHER SERVICE GREAT FALLS MT
100 AM MDT SAT SEP 05 2015

NOTE: "FAIR" INDICATES FEW OR NO CLOUDS BELOW 12000 FEET WITH NO
SIGNIFICANT WEATHER AND/OR OBSTRUCTIONS TO VISIBILITY.

MTZ001>007-043-050800-
WEST OF THE DIVIDE

CITY           SKY/WX    TMP DP  RH WIND       PRES   REMARKS
KALISPELL      CLOUDY    54  36  50 NE16      29.91S
MISSOULA       LGT RAIN  53  46  77 SE14      29.87S
BUTTE          CLOUDY    45  43  93 NW9       29.92F
MULLAN PASS    LGT RAIN  41  39  93 VRB3      29.90R
EUREKA           N/A     52  39  62 CALM      29.96R
HAMILTON         N/A     52  46  82 E3        29.84F
LIBBY            N/A     57  36  44 NW3       29.91S
$$

MTZ008-052>055-050800-
SOUTHWEST MONTANA

CITY           SKY/WX    TMP DP  RH WIND       PRES   REMARKS
BOZEMAN        CLOUDY    50  48  93 NW3       29.89F
DILLON         CLOUDY    48  42  80 E7        29.88S
W YELLOWSTONE  MOCLDY    46  45  93 NW6       29.92S
$$

MTZ009-010-012-014-046-048-049-054-050800-
EAST SLOPES AND CENTRAL MONTANA

CITY           SKY/WX    TMP DP  RH WIND       PRES   REMARKS
CUT BANK       LGT RAIN  44  43  96 N14       30.01F
GREAT FALLS    CLOUDY    49  48  97 NE15      29.95F
MALMSTROM AFB  CLOUDY    50  49  99 NE16G22   29.97F
HELENA         CLOUDY    48  45  89 NW8       29.93F
$$

MTZ011-013-016-021-045-047-050-051-050800-
NORTH CENTRAL MONTANA

CITY           SKY/WX    TMP DP  RH WIND       PRES   REMARKS
HAVRE          LGT RAIN  50  49  96 NE6       30.03F
LEWISTOWN      LGT RAIN  51  47  86 NE8       29.94F
N BAR RANCH    LGT RAIN  48  46  93 NW10      30.03R
CHINOOK          N/A     52  50  93 W6        30.04R
FORT BENTON      N/A     52  50  93 N8        30.00R
$$

MTZ017>020-022>027-061-062-050800-
NORTHEAST MONTANA

CITY           SKY/WX    TMP DP  RH WIND       PRES   REMARKS
GLASGOW        CLOUDY    56  46  69 NE18      29.96F
JORDAN           N/A     57  47  69 N16       29.94F
SIDNEY         CLOUDY    63  57  82 W5          N/A  THUNDER
WOLF POINT     CLOUDY    61  46  57 N10       29.97R
PLENTYWOOD       N/A     55  48  76 N15       29.94F
POPLAR           N/A     61  48  63 NE15G21   29.96R
$$

MTZ028>42-056>058-050800-
SOUTHCENTRAL AND SOUTHEAST MONTANA

CITY           SKY/WX    TMP DP  RH WIND       PRES   REMARKS
BAKER          CLOUDY    62 N/A N/A NE15      29.85F
BILLINGS       MOCLDY    55  46  71 NE6       29.94S
LIVINGSTON     LGT RAIN  52  47  83 E23       29.91F
MILES CITY     MOCLDY    63  57  81 N12       29.83F
FORSYTH          N/A     61  52  72 NW7       29.87F
$$

REGIONAL REPORTS...DAKOTAS

CITY           SKY/WX    TMP DP  RH WIND       PRES   REMARKS
WILLISTON      CLOUDY    60  56  86 N16       29.91F
MINOT          CLOUDY    61  59  93 N14       29.91R FOG
DICKINSON      FOG       63  61  93 W18       29.94R VSB 1/2
BISMARCK       CLEAR     69  66  90 NE7       29.84R
GRAND FORKS    CLEAR     66  64  93 N9        29.87R
FARGO          CLEAR     73  68  84 SE7       29.84R
BUFFALO SD       N/A     66  59  78 N14       29.80S
RAPID CITY     CLOUDY    70  59  68 E5        29.83R
$$

REGIONAL REPORTS...WYOMING/IDAHO/WASHINGTON

CITY           SKY/WX    TMP DP  RH WIND       PRES   REMARKS
GILLETTE       MOCLDY    60  55  83 CALM      29.91R
SHERIDAN       PTCLDY    56  48  74 CALM      29.91S
BUFFALO WY     PTCLDY    58  49  72 NW8       29.95S
CODY           PTCLDY    52  45  76 N7        29.92F
YELLOWSTONE LA   N/A     45  43  93 CALM      30.04S
IDAHO FALLS    PTCLDY    63  43  48 S16       29.76R
SALMON         CLOUDY    48  46  93 N5        29.85S
BOISE          PTCLDY    50  43  77 NW5       29.88R
SPOKANE        RAIN      54  45  71 E6        29.85R
$$

REGIONAL REPORTS...ALBERTA

CITY           SKY/WX    TMP DP  RH WIND       PRES   REMARKS
$$

REGIONAL REPORTS...SASKATCHEWAN

CITY           SKY/WX    TMP DP  RH WIND       PRES   REMARKS
$$


USA.gov is the U.S. government's official web portal to all federal, state and local government web resources and services.